This demonstration page uses our WeatherBlox Daily Observations layout. Learn more.

Left ArrowRight Arrow

Hourly Observations for August 11, 2022

Temp ( °F °C ) Dew Point ( °F °C ) Humidity (%) Winds ( mph kmh ) Pressure ( in mb ) Visibility ( mi km ) Precip ( " mm )
12:53 am 00:53 Mostly Clear 74 23.3 64 17.8 71 71 S 9 15 30.13 1020 10 16 0.00 0.00
1:53 am 01:53 Mostly Cloudy 74 23.3 63 17.2 69 69 S 8 13 30.14 1021 10 16 0.00 0.00
2:53 am 02:53 Mostly Cloudy 71 21.7 63 17.2 76 76 S 6 9 30.14 1021 10 16 0.00 0.00
3:53 am 03:53 Mostly Clear 70 21.1 62 16.7 76 76 S 8 13 30.13 1020 10 16 0.00 0.00
4:53 am 04:53 Mostly Clear 69 20.6 61 16.1 75 75 S 6 9 30.13 1020 10 16 0.00 0.00
5:53 am 05:53 Clear 68 20 60 15.6 76 76 S 8 13 30.13 1020 10 16 0.00 0.00
6:53 am 06:53 Sunny 68 20 59 15 73 73 S 9 15 30.14 1021 10 16 0.00 0.00
7:53 am 07:53 Sunny 70 21.1 59 15 68 68 S 8 13 30.14 1021 10 16 0.00 0.00
8:53 am 08:53 Sunny 74 23.3 59 15 60 60 S 8 13 30.16 1021 10 16 0.00 0.00
9:53 am 09:53 Sunny 78 25.6 59 15 52 52 S 8 13 30.16 1021 10 16 0.00 0.00
10:53 am 10:53 Sunny 81 27.2 61 16.1 51 51 SSW 9 15 30.16 1021 10 16 0.00 0.00
11:53 am 11:53 Sunny 84 28.9 62 16.7 48 48 SW 9 15 30.15 1021 10 16 0.00 0.00
12:53 pm 12:53 Sunny 86 30 63 17.2 46 46 SSW 8 13 30.14 1021 10 16 0.00 0.00
1:53 pm 13:53 Sunny 88 31.1 62 16.7 42 42 SSE 9 15 30.11 1020 10 16 0.00 0.00
2:53 pm 14:53 Sunny 89 31.7 60 15.6 38 38 SSE 8 13 30.11 1020 10 16 0.00 0.00
3:53 pm 15:53 Sunny 90 32.2 58 14.4 34 34 SSE 10 17 30.09 1019 10 16 0.00 0.00
4:53 pm 16:53 Sunny 92 33.3 56 13.3 30 30 S 10 17 30.08 1019 10 16 0.00 0.00
5:53 pm 17:53 Sunny 91 32.8 53 11.7 28 28 SE 12 19 30.07 1018 10 16 0.00 0.00
6:53 pm 18:53 Sunny 89 31.7 52 11.1 28 28 S 10 17 30.06 1018 10 16 0.00 0.00
7:53 pm 19:53 Sunny 85 29.4 57 13.9 39 39 SSE 8 13 30.07 1018 10 16 0.00 0.00
8:53 pm 20:53 Clear 81 27.2 56 13.3 42 42 SSE 7 11 30.07 1018 10 16 0.00 0.00
9:53 pm 21:53 Clear 77 25 57 13.9 50 50 SSE 8 13 30.09 1019 10 16 0.00 0.00
10:53 pm 22:53 Clear 74 23.3 57 13.9 56 56 S 7 11 30.09 1019 10 16 0.00 0.00
11:53 pm 23:53 Clear 71 21.7 57 13.9 61 61 S 8 13 30.09 1019 10 16 0.00 0.00

Powered by AerisWeather